Time,TemperatureF,DewpointF,PressureIn,WindDirection,WindDirectionDegrees,WindSpeedMPH,WindSpeedGustMPH,Humidity,HourlyPrecipIn,Conditions,Clouds,dailyrainin,SoftwareType,DateUTC
2013-04-03 00:00:00,38.2,16.0,29.93,SSW,202,0.0,2.6,38,0.00,,,0.00,Rainwise IP-100,2013-04-03 04:00:00,
2013-04-03 00:02:00,38.1,16.0,29.92,SSW,202,1.4,2.3,38,0.00,,,0.00,Rainwise IP-100,2013-04-03 04:02:00,
2013-04-03 00:04:00,38.1,16.0,29.93,SSW,202,1.2,2.1,38,0.00,,,0.00,Rainwise IP-100,2013-04-03 04:04:00,
2013-04-03 00:10:00,38.1,16.0,29.93,SSW,202,0.0,2.8,38,0.00,,,0.00,Rainwise IP-100,2013-04-03 04:10:00,
2013-04-03 00:16:00,38.0,16.0,29.93,SSW,202,1.4,2.1,38,0.00,,,0.00,Rainwise IP-100,2013-04-03 04:16:00,
2013-04-03 00:19:00,37.9,16.0,29.93,SSW,202,0.0,1.6,38,0.00,,,0.00,Rainwise IP-100,2013-04-03 04:19:00,
2013-04-03 00:24:00,37.7,16.0,29.93,SSW,202,0.0,1.6,39,0.00,,,0.00,Rainwise IP-100,2013-04-03 04:24:00,
2013-04-03 00:29:00,37.4,16.0,29.93,SSW,202,1.4,1.9,39,0.00,,,0.00,Rainwise IP-100,2013-04-03 04:29:00,
2013-04-03 00:34:00,37.3,16.0,29.93,SSW,202,0.0,2.1,40,0.00,,,0.00,Rainwise IP-100,2013-04-03 04:34:00,
2013-04-03 00:39:00,37.1,16.0,29.93,SSW,202,0.0,1.9,40,0.00,,,0.00,Rainwise IP-100,2013-04-03 04:39:00,
2013-04-03 00:44:00,37.0,16.0,29.93,SSW,202,0.0,1.4,40,0.00,,,0.00,Rainwise IP-100,2013-04-03 04:44:00,
2013-04-03 00:49:00,36.7,16.0,29.93,SSW,202,0.0,0.0,41,0.00,,,0.00,Rainwise IP-100,2013-04-03 04:49:00,
2013-04-03 00:54:00,36.4,16.0,29.94,SSW,202,0.0,0.0,42,0.00,,,0.00,Rainwise IP-100,2013-04-03 04:54:00,
2013-04-03 00:59:00,36.1,16.0,29.93,SSW,202,0.0,0.0,43,0.00,,,0.00,Rainwise IP-100,2013-04-03 04:59:00,
2013-04-03 01:04:00,35.6,16.0,29.93,SSW,202,0.0,1.2,43,0.00,,,0.00,Rainwise IP-100,2013-04-03 05:04:00,
2013-04-03 01:09:00,35.3,16.0,29.94,SSW,202,0.0,0.0,45,0.00,,,0.00,Rainwise IP-100,2013-04-03 05:09:00,
2013-04-03 01:15:00,35.0,16.0,29.94,SSW,202,0.0,0.0,45,0.00,,,0.00,Rainwise IP-100,2013-04-03 05:15:00,
2013-04-03 01:20:00,34.6,16.0,29.94,SSW,202,0.0,0.0,46,0.00,,,0.00,Rainwise IP-100,2013-04-03 05:20:00,
2013-04-03 01:25:00,34.2,16.0,29.94,SSW,202,0.0,0.0,46,0.00,,,0.00,Rainwise IP-100,2013-04-03 05:25:00,
2013-04-03 01:30:00,33.9,16.0,29.94,SSW,202,0.0,0.0,47,0.00,,,0.00,Rainwise IP-100,2013-04-03 05:30:00,
2013-04-03 01:35:00,33.6,18.0,29.94,SSW,202,0.0,0.0,48,0.00,,,0.00,Rainwise IP-100,2013-04-03 05:35:00,
2013-04-03 01:40:00,33.2,16.0,29.94,SSW,202,0.0,0.0,49,0.00,,,0.00,Rainwise IP-100,2013-04-03 05:40:00,
2013-04-03 01:45:00,32.7,18.0,29.94,SSW,202,0.0,0.0,51,0.00,,,0.00,Rainwise IP-100,2013-04-03 05:45:00,
2013-04-03 01:50:00,32.2,16.0,29.94,SSW,202,0.0,0.0,52,0.00,,,0.00,Rainwise IP-100,2013-04-03 05:50:00,
2013-04-03 01:55:00,31.8,18.0,29.94,SSW,202,0.0,0.0,54,0.00,,,0.00,Rainwise IP-100,2013-04-03 05:55:00,
2013-04-03 02:00:00,31.4,16.0,29.94,SSW,202,0.0,0.0,54,0.00,,,0.00,Rainwise IP-100,2013-04-03 06:00:00,
2013-04-03 02:05:00,31.0,16.0,29.94,SSW,202,0.0,0.0,55,0.00,,,0.00,Rainwise IP-100,2013-04-03 06:05:00,
2013-04-03 02:10:00,30.5,18.0,29.94,SSW,202,0.0,0.0,56,0.00,,,0.00,Rainwise IP-100,2013-04-03 06:10:00,
2013-04-03 02:16:00,30.0,18.0,29.94,SSW,202,0.0,0.0,58,0.00,,,0.00,Rainwise IP-100,2013-04-03 06:16:00,
2013-04-03 02:22:00,29.6,18.0,29.94,SSW,202,0.0,0.0,59,0.00,,,0.00,Rainwise IP-100,2013-04-03 06:22:00,
2013-04-03 02:27:00,29.4,18.0,29.95,SSW,202,0.0,0.0,61,0.00,,,0.00,Rainwise IP-100,2013-04-03 06:27:00,
2013-04-03 02:32:00,29.2,18.0,29.94,SSW,202,0.0,0.0,64,0.00,,,0.00,Rainwise IP-100,2013-04-03 06:32:00,
2013-04-03 02:37:00,28.9,18.0,29.95,SSW,202,0.0,0.0,65,0.00,,,0.00,Rainwise IP-100,2013-04-03 06:37:00,
2013-04-03 02:42:00,28.6,18.0,29.95,SSW,202,0.0,0.0,65,0.00,,,0.00,Rainwise IP-100,2013-04-03 06:42:00,
2013-04-03 02:48:00,28.3,18.0,29.95,SSW,202,0.0,0.0,65,0.00,,,0.00,Rainwise IP-100,2013-04-03 06:48:00,
2013-04-03 02:53:00,28.1,18.0,29.95,SSW,202,0.0,0.0,65,0.00,,,0.00,Rainwise IP-100,2013-04-03 06:53:00,
2013-04-03 02:58:00,27.9,18.0,29.95,SSW,202,0.0,0.0,66,0.00,,,0.00,Rainwise IP-100,2013-04-03 06:58:00,
2013-04-03 03:03:00,27.8,18.0,29.95,SSW,202,0.0,0.0,67,0.00,,,0.00,Rainwise IP-100,2013-04-03 07:03:00,
2013-04-03 03:08:00,27.5,18.0,29.95,SSW,202,0.0,0.0,68,0.00,,,0.00,Rainwise IP-100,2013-04-03 07:08:00,
2013-04-03 03:14:00,27.4,18.0,29.95,SSW,202,0.0,0.0,69,0.00,,,0.00,Rainwise IP-100,2013-04-03 07:14:00,
2013-04-03 03:19:00,27.3,21.0,29.95,SSW,202,0.0,0.0,70,0.00,,,0.00,Rainwise IP-100,2013-04-03 07:19:00,
2013-04-03 03:24:00,27.2,21.0,29.95,SSW,202,0.0,0.0,70,0.00,,,0.00,Rainwise IP-100,2013-04-03 07:24:00,
2013-04-03 03:29:00,27.0,21.0,29.95,SSW,202,0.0,0.0,70,0.00,,,0.00,Rainwise IP-100,2013-04-03 07:29:00,
2013-04-03 03:35:00,26.8,21.0,29.95,SSW,202,0.0,0.0,71,0.00,,,0.00,Rainwise IP-100,2013-04-03 07:35:00,
2013-04-03 03:40:00,26.7,21.0,29.95,SSW,202,0.0,0.0,71,0.00,,,0.00,Rainwise IP-100,2013-04-03 07:40:00,
2013-04-03 03:45:00,26.7,21.0,29.95,SSW,202,0.0,0.0,72,0.00,,,0.00,Rainwise IP-100,2013-04-03 07:45:00,
2013-04-03 03:50:00,26.7,21.0,29.95,SSW,202,0.0,0.0,72,0.00,,,0.00,Rainwise IP-100,2013-04-03 07:50:00,
2013-04-03 03:55:00,26.7,21.0,29.95,SSW,202,0.0,0.0,73,0.00,,,0.00,Rainwise IP-100,2013-04-03 07:55:00,
2013-04-03 04:00:00,26.7,21.0,29.95,SSW,202,0.0,0.0,73,0.00,,,0.00,Rainwise IP-100,2013-04-03 08:00:00,
2013-04-03 04:05:00,26.7,21.0,29.95,SSW,202,0.0,0.0,73,0.00,,,0.00,Rainwise IP-100,2013-04-03 08:05:00,
2013-04-03 04:10:00,26.6,21.0,29.95,SSW,202,0.0,0.0,74,0.00,,,0.00,Rainwise IP-100,2013-04-03 08:10:00,
2013-04-03 04:16:00,26.4,18.0,29.95,SSW,202,0.0,0.0,74,0.00,,,0.00,Rainwise IP-100,2013-04-03 08:16:00,
2013-04-03 04:21:00,26.2,21.0,29.95,SSW,202,0.0,0.0,75,0.00,,,0.00,Rainwise IP-100,2013-04-03 08:21:00,
2013-04-03 04:26:00,26.0,21.0,29.95,SSW,202,0.0,0.0,76,0.00,,,0.00,Rainwise IP-100,2013-04-03 08:26:00,
2013-04-03 04:33:00,25.8,21.0,29.95,SSW,202,0.0,0.0,76,0.00,,,0.00,Rainwise IP-100,2013-04-03 08:33:00,
2013-04-03 04:38:00,25.8,21.0,29.95,SSW,202,0.0,0.0,77,0.00,,,0.00,Rainwise IP-100,2013-04-03 08:38:00,
2013-04-03 04:43:00,25.8,21.0,29.95,SSW,202,0.0,0.0,77,0.00,,,0.00,Rainwise IP-100,2013-04-03 08:43:00,
2013-04-03 04:48:00,25.8,21.0,29.96,SSW,202,0.0,0.0,77,0.00,,,0.00,Rainwise IP-100,2013-04-03 08:48:00,
2013-04-03 04:53:00,25.7,21.0,29.95,SSW,202,0.0,0.0,77,0.00,,,0.00,Rainwise IP-100,2013-04-03 08:53:00,
2013-04-03 04:58:00,25.7,21.0,29.95,SSW,202,0.0,0.0,77,0.00,,,0.00,Rainwise IP-100,2013-04-03 08:58:00,
2013-04-03 05:03:00,25.7,21.0,29.96,SSW,202,0.0,0.0,77,0.00,,,0.00,Rainwise IP-100,2013-04-03 09:03:00,
2013-04-03 05:08:00,25.9,21.0,29.96,SSW,202,0.0,0.0,77,0.00,,,0.00,Rainwise IP-100,2013-04-03 09:08:00,
2013-04-03 05:14:00,26.3,21.0,29.96,SSW,202,0.0,0.0,77,0.00,,,0.00,Rainwise IP-100,2013-04-03 09:14:00,
2013-04-03 05:19:00,26.4,21.0,29.96,SSW,202,0.0,0.0,77,0.00,,,0.00,Rainwise IP-100,2013-04-03 09:19:00,
2013-04-03 05:24:00,26.4,21.0,29.96,SSW,202,0.0,0.0,77,0.00,,,0.00,Rainwise IP-100,2013-04-03 09:24:00,
2013-04-03 05:29:00,26.3,21.0,29.96,SSW,202,0.0,0.0,77,0.00,,,0.00,Rainwise IP-100,2013-04-03 09:29:00,
2013-04-03 05:34:00,26.2,21.0,29.96,SSW,202,0.0,0.0,77,0.00,,,0.00,Rainwise IP-100,2013-04-03 09:34:00,
2013-04-03 05:39:00,25.9,21.0,29.96,SSW,202,0.0,0.0,78,0.00,,,0.00,Rainwise IP-100,2013-04-03 09:39:00,
2013-04-03 05:44:00,25.6,21.0,29.96,SSW,202,0.0,0.0,79,0.00,,,0.00,Rainwise IP-100,2013-04-03 09:44:00,
2013-04-03 05:49:00,25.4,21.0,29.96,SSW,202,0.0,0.0,79,0.00,,,0.00,Rainwise IP-100,2013-04-03 09:49:00,
2013-04-03 05:54:00,25.2,21.0,29.96,SSW,202,0.0,0.0,79,0.00,,,0.00,Rainwise IP-100,2013-04-03 09:54:00,
2013-04-03 05:59:00,25.1,21.0,29.97,SSW,202,0.0,0.0,80,0.00,,,0.00,Rainwise IP-100,2013-04-03 09:59:00,
2013-04-03 06:04:00,25.2,21.0,29.97,SSW,202,0.0,0.0,80,0.00,,,0.00,Rainwise IP-100,2013-04-03 10:04:00,
2013-04-03 06:09:00,25.4,21.0,29.96,SSW,202,0.0,0.0,80,0.00,,,0.00,Rainwise IP-100,2013-04-03 10:09:00,
2013-04-03 06:15:00,25.5,21.0,29.97,SSW,202,0.0,0.0,80,0.00,,,0.00,Rainwise IP-100,2013-04-03 10:15:00,
2013-04-03 06:20:00,25.6,21.0,29.97,SSW,202,0.0,0.0,80,0.00,,,0.00,Rainwise IP-100,2013-04-03 10:20:00,
2013-04-03 06:25:00,25.7,21.0,29.97,SSW,202,0.0,0.0,79,0.00,,,0.00,Rainwise IP-100,2013-04-03 10:25:00,
2013-04-03 06:30:00,25.8,21.0,29.98,SSW,202,0.0,0.0,79,0.00,,,0.00,Rainwise IP-100,2013-04-03 10:30:00,
2013-04-03 06:35:00,25.6,21.0,29.98,SSW,202,0.0,0.0,79,0.00,,,0.00,Rainwise IP-100,2013-04-03 10:35:00,
2013-04-03 06:40:00,25.4,21.0,29.98,SSW,202,0.0,0.0,79,0.00,,,0.00,Rainwise IP-100,2013-04-03 10:40:00,
2013-04-03 06:45:00,25.3,21.0,29.98,SSW,202,0.0,0.0,80,0.00,,,0.00,Rainwise IP-100,2013-04-03 10:45:00,
2013-04-03 06:50:00,25.2,21.0,29.98,SSW,202,0.0,0.0,80,0.00,,,0.00,Rainwise IP-100,2013-04-03 10:50:00,
2013-04-03 06:55:00,25.0,21.0,29.98,SSW,202,0.0,0.0,80,0.00,,,0.00,Rainwise IP-100,2013-04-03 10:55:00,
2013-04-03 07:00:00,25.0,21.0,29.98,SSW,202,0.0,0.0,81,0.00,,,0.00,Rainwise IP-100,2013-04-03 11:00:00,
2013-04-03 07:05:00,25.0,21.0,29.98,SSW,202,0.0,0.0,82,0.00,,,0.00,Rainwise IP-100,2013-04-03 11:05:00,
2013-04-03 07:10:00,25.0,21.0,29.99,SSW,202,0.0,0.0,82,0.00,,,0.00,Rainwise IP-100,2013-04-03 11:10:00,
2013-04-03 07:16:00,25.2,21.0,29.99,SSW,202,0.0,0.0,82,0.00,,,0.00,Rainwise IP-100,2013-04-03 11:16:00,
2013-04-03 07:21:00,25.5,21.0,29.99,SSW,202,0.0,0.0,81,0.00,,,0.00,Rainwise IP-100,2013-04-03 11:21:00,
2013-04-03 07:27:00,25.7,21.0,30.00,SSW,202,0.0,0.0,81,0.00,,,0.00,Rainwise IP-100,2013-04-03 11:27:00,
2013-04-03 07:32:00,25.8,21.0,29.99,SSW,202,0.0,0.0,80,0.00,,,0.00,Rainwise IP-100,2013-04-03 11:32:00,
2013-04-03 07:37:00,25.9,21.0,29.99,SSW,202,0.0,0.0,80,0.00,,,0.00,Rainwise IP-100,2013-04-03 11:37:00,
2013-04-03 07:43:00,26.1,21.0,29.99,SSW,202,0.0,0.0,81,0.00,,,0.00,Rainwise IP-100,2013-04-03 11:43:00,
2013-04-03 07:48:00,26.3,21.0,30.00,SSW,202,0.0,0.0,80,0.00,,,0.00,Rainwise IP-100,2013-04-03 11:48:00,
2013-04-03 07:53:00,26.8,23.0,29.99,SSW,202,0.0,0.0,80,0.00,,,0.00,Rainwise IP-100,2013-04-03 11:53:00,
2013-04-03 07:58:00,27.5,23.0,29.99,SSW,202,0.0,0.0,79,0.00,,,0.00,Rainwise IP-100,2013-04-03 11:58:00,
2013-04-03 08:03:00,28.3,23.0,29.99,SSW,202,0.0,0.0,78,0.00,,,0.00,Rainwise IP-100,2013-04-03 12:03:00,
2013-04-03 08:08:00,29.3,23.0,29.99,SSW,202,0.0,0.0,75,0.00,,,0.00,Rainwise IP-100,2013-04-03 12:08:00,
2013-04-03 08:14:00,30.6,23.0,29.99,SSW,202,0.0,0.0,72,0.00,,,0.00,Rainwise IP-100,2013-04-03 12:14:00,
2013-04-03 08:19:00,32.5,24.0,30.00,SSW,202,0.0,0.0,67,0.00,,,0.00,Rainwise IP-100,2013-04-03 12:19:00,
2013-04-03 08:24:00,34.1,23.0,29.99,SSW,202,0.0,0.0,62,0.00,,,0.00,Rainwise IP-100,2013-04-03 12:24:00,
2013-04-03 08:29:00,35.8,23.0,30.00,SSW,202,0.0,1.2,58,0.00,,,0.00,Rainwise IP-100,2013-04-03 12:29:00,
2013-04-03 08:35:00,38.0,23.0,30.00,SSW,202,0.0,1.4,53,0.00,,,0.00,Rainwise IP-100,2013-04-03 12:35:00,
2013-04-03 08:40:00,39.2,23.0,29.99,SSW,202,0.0,1.4,49,0.00,,,0.00,Rainwise IP-100,2013-04-03 12:40:00,
2013-04-03 08:45:00,40.3,23.0,30.00,SSW,202,0.0,0.0,47,0.00,,,0.00,Rainwise IP-100,2013-04-03 12:45:00,
2013-04-03 08:50:00,41.4,23.0,30.00,SSW,202,0.0,2.1,45,0.00,,,0.00,Rainwise IP-100,2013-04-03 12:50:00,
2013-04-03 08:55:00,42.4,23.0,30.00,SSW,202,0.0,2.1,43,0.00,,,0.00,Rainwise IP-100,2013-04-03 12:55:00,
2013-04-03 09:00:00,43.2,21.0,30.00,SSW,202,0.0,2.1,41,0.00,,,0.00,Rainwise IP-100,2013-04-03 13:00:00,
2013-04-03 09:05:00,43.8,21.0,30.00,SSW,202,0.0,3.5,39,0.00,,,0.00,Rainwise IP-100,2013-04-03 13:05:00,
2013-04-03 09:10:00,44.1,21.0,30.00,SSW,202,0.0,2.3,38,0.00,,,0.00,Rainwise IP-100,2013-04-03 13:10:00,
2013-04-03 09:15:00,44.3,21.0,30.01,SSW,202,1.2,3.0,38,0.00,,,0.00,Rainwise IP-100,2013-04-03 13:15:00,
2013-04-03 09:21:00,44.5,21.0,30.00,SSW,202,0.0,2.1,37,0.00,,,0.00,Rainwise IP-100,2013-04-03 13:21:00,
2013-04-03 09:26:00,44.7,21.0,30.01,SSW,202,0.0,2.3,37,0.00,,,0.00,Rainwise IP-100,2013-04-03 13:26:00,
2013-04-03 09:31:00,45.0,21.0,30.01,SSW,202,0.0,2.3,36,0.00,,,0.00,Rainwise IP-100,2013-04-03 13:31:00,
2013-04-03 09:37:00,45.1,21.0,30.01,SSW,202,0.0,1.6,36,0.00,,,0.00,Rainwise IP-100,2013-04-03 13:37:00,
2013-04-03 09:42:00,45.2,21.0,30.01,SSW,202,2.1,2.8,36,0.00,,,0.00,Rainwise IP-100,2013-04-03 13:42:00,
2013-04-03 09:47:00,45.4,21.0,30.01,SSW,202,2.1,4.4,36,0.00,,,0.00,Rainwise IP-100,2013-04-03 13:47:00,
2013-04-03 09:52:00,45.4,21.0,30.01,SSW,202,2.3,4.0,35,0.00,,,0.00,Rainwise IP-100,2013-04-03 13:52:00,
2013-04-03 09:57:00,45.1,18.0,30.00,SSW,202,3.0,5.1,34,0.00,,,0.00,Rainwise IP-100,2013-04-03 13:57:00,
2013-04-03 10:02:00,44.9,18.0,30.00,SSW,202,0.0,4.2,34,0.00,,,0.00,Rainwise IP-100,2013-04-03 14:02:00,
2013-04-03 10:08:00,45.0,18.0,30.01,SSW,202,2.3,6.3,34,0.00,,,0.00,Rainwise IP-100,2013-04-03 14:08:00,
2013-04-03 10:13:00,45.1,18.0,30.02,SW,225,5.1,7.2,33,0.00,,,0.00,Rainwise IP-100,2013-04-03 14:13:00,
2013-04-03 10:19:00,44.9,18.0,30.02,SW,225,1.4,6.5,32,0.00,,,0.00,Rainwise IP-100,2013-04-03 14:19:00,
2013-04-03 10:24:00,44.9,16.0,30.02,SSW,202,1.4,7.0,31,0.00,,,0.00,Rainwise IP-100,2013-04-03 14:24:00,
2013-04-03 10:29:00,45.0,18.0,30.01,SSW,202,1.9,5.4,32,0.00,,,0.00,Rainwise IP-100,2013-04-03 14:29:00,
2013-04-03 10:34:00,45.2,18.0,30.02,SSW,202,0.0,4.4,33,0.00,,,0.00,Rainwise IP-100,2013-04-03 14:34:00,
2013-04-03 10:39:00,45.5,18.0,30.02,SSW,202,1.2,3.3,33,0.00,,,0.00,Rainwise IP-100,2013-04-03 14:39:00,
2013-04-03 10:44:00,45.8,18.0,30.02,SSW,202,3.0,4.9,33,0.00,,,0.00,Rainwise IP-100,2013-04-03 14:44:00,
2013-04-03 10:49:00,45.9,18.0,30.02,SSW,202,2.1,5.1,32,0.00,,,0.00,Rainwise IP-100,2013-04-03 14:49:00,
2013-04-03 10:54:00,45.7,18.0,30.02,SSW,202,0.0,5.4,31,0.00,,,0.00,Rainwise IP-100,2013-04-03 14:54:00,
2013-04-03 10:59:00,45.9,18.0,30.02,SSW,202,1.6,6.3,31,0.00,,,0.00,Rainwise IP-100,2013-04-03 14:59:00,
2013-04-03 11:04:00,46.1,18.0,30.02,SSW,202,1.2,3.0,31,0.00,,,0.00,Rainwise IP-100,2013-04-03 15:04:00,
2013-04-03 11:09:00,46.3,18.0,30.02,SSW,202,1.6,5.6,31,0.00,,,0.00,Rainwise IP-100,2013-04-03 15:09:00,
2013-04-03 11:14:00,46.6,18.0,30.02,SSW,202,0.0,4.0,30,0.00,,,0.00,Rainwise IP-100,2013-04-03 15:14:00,
2013-04-03 11:20:00,47.2,18.0,30.02,SSW,202,3.0,4.0,30,0.00,,,0.00,Rainwise IP-100,2013-04-03 15:20:00,
2013-04-03 11:26:00,47.8,18.0,30.02,SSW,202,0.0,6.8,29,0.00,,,0.00,Rainwise IP-100,2013-04-03 15:26:00,
2013-04-03 11:32:00,48.5,18.0,30.02,SSW,202,0.0,4.7,28,0.00,,,0.00,Rainwise IP-100,2013-04-03 15:32:00,
2013-04-03 11:37:00,49.4,16.0,30.02,SSW,202,1.2,4.7,27,0.00,,,0.00,Rainwise IP-100,2013-04-03 15:37:00,
2013-04-03 11:42:00,50.1,18.0,30.02,SSW,202,4.2,6.5,27,0.00,,,0.00,Rainwise IP-100,2013-04-03 15:42:00,
2013-04-03 11:47:00,50.2,18.0,30.01,SSW,202,2.6,6.5,27,0.00,,,0.00,Rainwise IP-100,2013-04-03 15:47:00,
2013-04-03 11:52:00,50.2,18.0,30.01,SSW,202,1.2,4.0,27,0.00,,,0.00,Rainwise IP-100,2013-04-03 15:52:00,
2013-04-03 11:57:00,50.8,18.0,30.00,SSW,202,0.0,6.3,26,0.00,,,0.00,Rainwise IP-100,2013-04-03 15:57:00,
2013-04-03 12:02:00,51.7,18.0,30.01,SSW,202,0.0,3.7,26,0.00,,,0.00,Rainwise IP-100,2013-04-03 16:02:00,
2013-04-03 12:07:00,51.9,18.0,30.01,SW,225,1.6,6.1,26,0.00,,,0.00,Rainwise IP-100,2013-04-03 16:07:00,
2013-04-03 12:12:00,51.5,18.0,30.01,SW,225,2.1,5.4,25,0.00,,,0.00,Rainwise IP-100,2013-04-03 16:12:00,
2013-04-03 12:19:00,51.4,18.0,30.01,SW,225,2.1,3.7,25,0.00,,,0.00,Rainwise IP-100,2013-04-03 16:19:00,
2013-04-03 12:24:00,51.7,18.0,30.00,SSW,202,1.6,6.3,25,0.00,,,0.00,Rainwise IP-100,2013-04-03 16:24:00,
2013-04-03 12:29:00,51.9,18.0,30.00,SSW,202,4.0,6.3,25,0.00,,,0.00,Rainwise IP-100,2013-04-03 16:29:00,
2013-04-03 12:35:00,51.8,16.0,29.99,SSW,202,3.0,4.9,24,0.00,,,0.00,Rainwise IP-100,2013-04-03 16:35:00,
2013-04-03 12:40:00,51.6,16.0,29.99,SSW,202,1.4,5.6,24,0.00,,,0.00,Rainwise IP-100,2013-04-03 16:40:00,
2013-04-03 12:45:00,52.0,18.0,29.99,SSW,202,4.9,8.4,25,0.00,,,0.00,Rainwise IP-100,2013-04-03 16:45:00,
2013-04-03 12:50:00,52.2,16.0,29.99,SSW,202,2.6,6.5,24,0.00,,,0.00,Rainwise IP-100,2013-04-03 16:50:00,
2013-04-03 12:55:00,52.1,16.0,29.99,SSW,202,2.3,6.8,24,0.00,,,0.00,Rainwise IP-100,2013-04-03 16:55:00,
2013-04-03 13:00:00,52.4,16.0,29.98,SSW,202,2.3,4.2,24,0.00,,,0.00,Rainwise IP-100,2013-04-03 17:00:00,
2013-04-03 13:05:00,53.1,16.0,29.98,SSW,202,1.6,4.7,23,0.00,,,0.00,Rainwise IP-100,2013-04-03 17:05:00,
2013-04-03 13:10:00,53.3,16.0,29.99,SSW,202,3.0,5.4,22,0.00,,,0.00,Rainwise IP-100,2013-04-03 17:10:00,
2013-04-03 13:17:00,52.9,16.0,29.98,SSW,202,0.0,8.2,22,0.00,,,0.00,Rainwise IP-100,2013-04-03 17:17:00,
2013-04-03 13:23:00,52.6,16.0,29.98,SSW,202,1.4,7.5,23,0.00,,,0.00,Rainwise IP-100,2013-04-03 17:23:00,
2013-04-03 13:28:00,52.5,16.0,29.97,SSW,202,2.3,5.8,23,0.00,,,0.00,Rainwise IP-100,2013-04-03 17:28:00,
2013-04-03 13:33:00,52.5,16.0,29.97,SSW,202,1.9,4.9,22,0.00,,,0.00,Rainwise IP-100,2013-04-03 17:33:00,
2013-04-03 13:38:00,52.7,16.0,29.97,SSW,202,1.2,7.2,22,0.00,,,0.00,Rainwise IP-100,2013-04-03 17:38:00,
2013-04-03 13:43:00,52.8,16.0,29.97,SSW,202,3.0,5.6,22,0.00,,,0.00,Rainwise IP-100,2013-04-03 17:43:00,
2013-04-03 13:48:00,52.8,16.0,29.97,SSW,202,6.5,8.4,22,0.00,,,0.00,Rainwise IP-100,2013-04-03 17:48:00,
2013-04-03 13:53:00,52.3,16.0,29.96,SSW,202,3.5,6.8,22,0.00,,,0.00,Rainwise IP-100,2013-04-03 17:53:00,
2013-04-03 13:58:00,51.6,16.0,29.96,SSW,202,2.1,9.3,23,0.00,,,0.00,Rainwise IP-100,2013-04-03 17:58:00,
2013-04-03 14:03:00,51.6,16.0,29.96,SSW,202,1.6,4.2,23,0.00,,,0.00,Rainwise IP-100,2013-04-03 18:03:00,
2013-04-03 14:08:00,51.9,16.0,29.96,SSW,202,3.3,7.2,23,0.00,,,0.00,Rainwise IP-100,2013-04-03 18:08:00,
2013-04-03 14:13:00,52.0,16.0,29.96,SSW,202,4.0,4.7,23,0.00,,,0.00,Rainwise IP-100,2013-04-03 18:13:00,
2013-04-03 14:21:00,51.4,16.0,29.96,SSW,202,0.0,4.9,23,0.00,,,0.00,Rainwise IP-100,2013-04-03 18:21:00,
2013-04-03 14:26:00,51.0,16.0,29.96,SSW,202,1.9,5.6,24,0.00,,,0.00,Rainwise IP-100,2013-04-03 18:26:00,
2013-04-03 14:31:00,50.9,16.0,29.96,SSW,202,3.7,6.8,24,0.00,,,0.00,Rainwise IP-100,2013-04-03 18:31:00,
2013-04-03 14:37:00,50.1,14.0,29.96,SSW,202,1.4,10.0,23,0.00,,,0.00,Rainwise IP-100,2013-04-03 18:37:00,
2013-04-03 14:42:00,49.4,14.0,29.96,SSW,202,0.0,6.8,24,0.00,,,0.00,Rainwise IP-100,2013-04-03 18:42:00,
2013-04-03 14:47:00,49.2,14.0,29.95,SSW,202,0.0,6.8,24,0.00,,,0.00,Rainwise IP-100,2013-04-03 18:47:00,
2013-04-03 14:53:00,49.2,14.0,29.95,SSW,202,2.3,6.1,24,0.00,,,0.00,Rainwise IP-100,2013-04-03 18:53:00,
2013-04-03 14:58:00,49.3,14.0,29.95,SSW,202,0.0,6.8,24,0.00,,,0.00,Rainwise IP-100,2013-04-03 18:58:00,
2013-04-03 15:03:00,49.3,16.0,29.95,SSW,202,1.6,5.6,25,0.00,,,0.00,Rainwise IP-100,2013-04-03 19:03:00,
2013-04-03 15:10:00,49.3,16.0,29.95,SSW,202,0.0,2.8,25,0.00,,,0.00,Rainwise IP-100,2013-04-03 19:10:00,
2013-04-03 15:15:00,49.3,14.0,29.94,SSW,202,2.1,5.4,24,0.00,,,0.00,Rainwise IP-100,2013-04-03 19:15:00,
2013-04-03 15:22:00,49.4,14.0,29.96,SSW,202,3.5,6.5,24,0.00,,,0.00,Rainwise IP-100,2013-04-03 19:22:00,
2013-04-03 15:28:00,49.3,14.0,29.95,SSW,202,1.9,4.7,24,0.00,,,0.00,Rainwise IP-100,2013-04-03 19:28:00,
2013-04-03 15:33:00,49.3,16.0,29.95,SSW,202,3.3,5.8,25,0.00,,,0.00,Rainwise IP-100,2013-04-03 19:33:00,
2013-04-03 15:38:00,49.4,14.0,29.94,SSW,202,3.0,6.5,24,0.00,,,0.00,Rainwise IP-100,2013-04-03 19:38:00,
2013-04-03 15:43:00,49.5,16.0,29.95,SSW,202,2.8,6.3,24,0.00,,,0.00,Rainwise IP-100,2013-04-03 19:43:00,
2013-04-03 15:48:00,49.9,16.0,29.95,SSW,202,1.9,3.5,24,0.00,,,0.00,Rainwise IP-100,2013-04-03 19:48:00,
2013-04-03 15:53:00,50.3,16.0,29.95,SSW,202,6.5,9.1,24,0.00,,,0.00,Rainwise IP-100,2013-04-03 19:53:00,
2013-04-03 15:58:00,50.2,14.0,29.95,SSW,202,0.0,8.2,23,0.00,,,0.00,Rainwise IP-100,2013-04-03 19:58:00,
2013-04-03 16:03:00,50.1,14.0,29.95,SSW,202,2.3,6.3,23,0.00,,,0.00,Rainwise IP-100,2013-04-03 20:03:00,
2013-04-03 16:09:00,50.1,16.0,29.95,SSW,202,6.3,9.3,24,0.00,,,0.00,Rainwise IP-100,2013-04-03 20:09:00,
2013-04-03 16:14:00,50.0,16.0,29.95,SSW,202,0.0,7.0,24,0.00,,,0.00,Rainwise IP-100,2013-04-03 20:14:00,
2013-04-03 16:19:00,49.7,16.0,29.96,SSW,202,0.0,3.3,24,0.00,,,0.00,Rainwise IP-100,2013-04-03 20:19:00,
2013-04-03 16:25:00,49.5,16.0,29.96,SSW,202,3.0,8.4,24,0.00,,,0.00,Rainwise IP-100,2013-04-03 20:25:00,
2013-04-03 16:30:00,49.6,16.0,29.96,SSW,202,3.3,5.6,24,0.00,,,0.00,Rainwise IP-100,2013-04-03 20:30:00,
2013-04-03 16:35:00,49.8,16.0,29.96,SSW,202,0.0,4.7,24,0.00,,,0.00,Rainwise IP-100,2013-04-03 20:35:00,
2013-04-03 16:40:00,49.9,16.0,29.97,SSW,202,4.7,6.3,24,0.00,,,0.00,Rainwise IP-100,2013-04-03 20:40:00,
2013-04-03 16:45:00,49.8,14.0,29.97,SSW,202,1.6,8.4,23,0.00,,,0.00,Rainwise IP-100,2013-04-03 20:45:00,
2013-04-03 16:50:00,49.7,14.0,29.97,SSW,202,0.0,8.6,23,0.00,,,0.00,Rainwise IP-100,2013-04-03 20:50:00,
2013-04-03 16:55:00,49.7,14.0,29.98,SW,225,4.0,9.6,23,0.00,,,0.00,Rainwise IP-100,2013-04-03 20:55:00,
2013-04-03 17:00:00,49.7,14.0,29.98,SSW,202,2.6,5.1,23,0.00,,,0.00,Rainwise IP-100,2013-04-03 21:00:00,
2013-04-03 17:05:00,49.6,14.0,29.98,SSW,202,4.2,5.1,23,0.00,,,0.00,Rainwise IP-100,2013-04-03 21:05:00,
2013-04-03 17:11:00,49.6,14.0,29.99,SSW,202,1.9,6.5,23,0.00,,,0.00,Rainwise IP-100,2013-04-03 21:11:00,
2013-04-03 17:17:00,49.3,14.0,29.99,SSW,202,0.0,6.8,24,0.00,,,0.00,Rainwise IP-100,2013-04-03 21:17:00,
2013-04-03 17:23:00,49.0,14.0,29.99,SSW,202,2.1,9.6,24,0.00,,,0.00,Rainwise IP-100,2013-04-03 21:23:00,
2013-04-03 17:28:00,48.8,14.0,30.00,SSW,202,2.8,8.6,24,0.00,,,0.00,Rainwise IP-100,2013-04-03 21:28:00,
2013-04-03 17:34:00,48.5,16.0,30.00,SSW,202,2.1,6.3,25,0.00,,,0.00,Rainwise IP-100,2013-04-03 21:34:00,
2013-04-03 17:40:00,48.3,16.0,30.00,SSW,202,2.6,10.0,25,0.00,,,0.00,Rainwise IP-100,2013-04-03 21:40:00,
2013-04-03 17:45:00,48.2,16.0,30.01,SSW,202,3.0,7.9,25,0.00,,,0.00,Rainwise IP-100,2013-04-03 21:45:00,
2013-04-03 17:50:00,48.0,16.0,30.01,SSW,202,3.5,8.9,25,0.00,,,0.00,Rainwise IP-100,2013-04-03 21:50:00,
2013-04-03 17:55:00,47.8,16.0,30.01,SSW,202,1.4,7.7,25,0.00,,,0.00,Rainwise IP-100,2013-04-03 21:55:00,
2013-04-03 18:00:00,47.7,14.0,30.02,SSW,202,1.4,10.5,25,0.00,,,0.00,Rainwise IP-100,2013-04-03 22:00:00,
2013-04-03 18:05:00,47.5,14.0,30.02,SSW,202,3.7,9.1,25,0.00,,,0.00,Rainwise IP-100,2013-04-03 22:05:00,
2013-04-03 18:11:00,47.2,14.0,30.02,SSW,202,2.6,5.1,25,0.00,,,0.00,Rainwise IP-100,2013-04-03 22:11:00,
2013-04-03 18:17:00,47.1,14.0,30.03,SSW,202,1.2,6.3,25,0.00,,,0.00,Rainwise IP-100,2013-04-03 22:17:00,
2013-04-03 18:22:00,46.9,14.0,30.03,SSW,202,2.3,4.2,25,0.00,,,0.00,Rainwise IP-100,2013-04-03 22:22:00,
2013-04-03 18:28:00,46.7,14.0,30.03,SSW,202,1.4,5.1,25,0.00,,,0.00,Rainwise IP-100,2013-04-03 22:28:00,
2013-04-03 18:33:00,46.5,14.0,30.04,SSW,202,2.3,4.4,25,0.00,,,0.00,Rainwise IP-100,2013-04-03 22:33:00,
2013-04-03 18:38:00,46.3,14.0,30.04,SSW,202,0.0,4.7,25,0.00,,,0.00,Rainwise IP-100,2013-04-03 22:38:00,
2013-04-03 18:43:00,46.2,14.0,30.04,SSW,202,3.5,6.3,25,0.00,,,0.00,Rainwise IP-100,2013-04-03 22:43:00,
2013-04-03 18:48:00,46.0,14.0,30.04,SSW,202,1.6,6.1,25,0.00,,,0.00,Rainwise IP-100,2013-04-03 22:48:00,
2013-04-03 18:53:00,45.7,14.0,30.05,SSW,202,2.1,4.4,25,0.00,,,0.00,Rainwise IP-100,2013-04-03 22:53:00,
2013-04-03 18:58:00,45.4,14.0,30.05,SSW,202,1.2,2.6,25,0.00,,,0.00,Rainwise IP-100,2013-04-03 22:58:00,
2013-04-03 19:03:00,45.2,14.0,30.05,SSW,202,3.5,3.5,25,0.00,,,0.00,Rainwise IP-100,2013-04-03 23:03:00,
2013-04-03 19:08:00,44.9,14.0,30.05,SSW,202,0.0,7.2,25,0.00,,,0.00,Rainwise IP-100,2013-04-03 23:08:00,
2013-04-03 19:14:00,44.7,14.0,30.05,SSW,202,2.1,3.7,26,0.00,,,0.00,Rainwise IP-100,2013-04-03 23:14:00,
2013-04-03 19:19:00,44.5,14.0,30.05,SSW,202,1.6,6.1,26,0.00,,,0.00,Rainwise IP-100,2013-04-03 23:19:00,
2013-04-03 19:25:00,44.2,14.0,30.05,SSW,202,1.2,4.0,26,0.00,,,0.00,Rainwise IP-100,2013-04-03 23:25:00,
2013-04-03 19:31:00,43.8,14.0,30.05,SSW,202,0.0,3.5,26,0.00,,,0.00,Rainwise IP-100,2013-04-03 23:31:00,
2013-04-03 19:37:00,43.5,14.0,30.06,SSW,202,3.3,8.2,27,0.00,,,0.00,Rainwise IP-100,2013-04-03 23:37:00,
2013-04-03 19:42:00,43.4,14.0,30.06,SSW,202,1.9,4.4,27,0.00,,,0.00,Rainwise IP-100,2013-04-03 23:42:00,
2013-04-03 19:47:00,43.2,14.0,30.06,SSW,202,0.0,5.1,27,0.00,,,0.00,Rainwise IP-100,2013-04-03 23:47:00,
2013-04-03 19:52:00,42.9,14.0,30.07,SSW,202,0.0,4.0,27,0.00,,,0.00,Rainwise IP-100,2013-04-03 23:52:00,
2013-04-03 19:57:00,42.7,14.0,30.07,SSW,202,0.0,4.9,28,0.00,,,0.00,Rainwise IP-100,2013-04-03 23:57:00,
2013-04-03 20:02:00,42.4,14.0,30.07,SSW,202,0.0,4.0,28,0.00,,,0.00,Rainwise IP-100,2013-04-04 00:02:00,
2013-04-03 20:07:00,42.2,14.0,30.08,SSW,202,3.0,4.0,29,0.00,,,0.00,Rainwise IP-100,2013-04-04 00:07:00,
2013-04-03 20:12:00,42.0,14.0,30.08,SSW,202,1.2,3.0,29,0.00,,,0.00,Rainwise IP-100,2013-04-04 00:12:00,
2013-04-03 20:17:00,41.8,14.0,30.07,SSW,202,4.9,4.9,29,0.00,,,0.00,Rainwise IP-100,2013-04-04 00:17:00,
2013-04-03 20:22:00,41.7,14.0,30.07,SSW,202,1.4,5.4,30,0.00,,,0.00,Rainwise IP-100,2013-04-04 00:22:00,
2013-04-03 20:28:00,41.6,14.0,30.07,SSW,202,0.0,4.2,30,0.00,,,0.00,Rainwise IP-100,2013-04-04 00:28:00,
2013-04-03 20:33:00,41.4,14.0,30.08,SSW,202,1.9,3.0,31,0.00,,,0.00,Rainwise IP-100,2013-04-04 00:33:00,
2013-04-03 20:38:00,41.1,14.0,30.08,SSW,202,0.0,4.4,31,0.00,,,0.00,Rainwise IP-100,2013-04-04 00:38:00,
2013-04-03 20:43:00,41.0,14.0,30.08,SSW,202,3.5,6.1,32,0.00,,,0.00,Rainwise IP-100,2013-04-04 00:43:00,
2013-04-03 20:48:00,41.0,14.0,30.10,SSW,202,0.0,5.4,32,0.00,,,0.00,Rainwise IP-100,2013-04-04 00:48:00,
2013-04-03 20:53:00,40.8,16.0,30.09,SSW,202,0.0,4.7,33,0.00,,,0.00,Rainwise IP-100,2013-04-04 00:53:00,
2013-04-03 20:58:00,40.4,16.0,30.10,SSW,202,0.0,7.2,34,0.00,,,0.00,Rainwise IP-100,2013-04-04 00:58:00,
2013-04-03 21:03:00,40.1,16.0,30.10,SSW,202,0.0,2.3,35,0.00,,,0.00,Rainwise IP-100,2013-04-04 01:03:00,
2013-04-03 21:09:00,39.8,16.0,30.10,SSW,202,0.0,2.1,37,0.00,,,0.00,Rainwise IP-100,2013-04-04 01:09:00,
2013-04-03 21:14:00,39.4,16.0,30.10,SSW,202,1.9,3.0,38,0.00,,,0.00,Rainwise IP-100,2013-04-04 01:14:00,
2013-04-03 21:19:00,39.2,16.0,30.11,SSW,202,4.4,4.4,39,0.00,,,0.00,Rainwise IP-100,2013-04-04 01:19:00,
2013-04-03 21:25:00,39.1,18.0,30.11,SSW,202,0.0,4.4,40,0.00,,,0.00,Rainwise IP-100,2013-04-04 01:25:00,
2013-04-03 21:31:00,38.7,18.0,30.11,SSW,202,0.0,3.0,40,0.00,,,0.00,Rainwise IP-100,2013-04-04 01:31:00,
2013-04-03 21:37:00,38.4,16.0,30.11,SSW,202,0.0,4.4,41,0.00,,,0.00,Rainwise IP-100,2013-04-04 01:37:00,
2013-04-03 21:42:00,38.3,18.0,30.11,SW,225,0.0,4.0,42,0.00,,,0.00,Rainwise IP-100,2013-04-04 01:42:00,
2013-04-03 21:47:00,38.1,18.0,30.12,SW,225,0.0,3.3,43,0.00,,,0.00,Rainwise IP-100,2013-04-04 01:47:00,
2013-04-03 21:52:00,37.9,18.0,30.11,SW,225,0.0,2.1,43,0.00,,,0.00,Rainwise IP-100,2013-04-04 01:52:00,
2013-04-03 21:58:00,37.6,18.0,30.12,SW,225,0.0,2.8,44,0.00,,,0.00,Rainwise IP-100,2013-04-04 01:58:00,
2013-04-03 22:03:00,37.4,18.0,30.11,SW,225,3.0,4.9,45,0.00,,,0.00,Rainwise IP-100,2013-04-04 02:03:00,
2013-04-03 22:09:00,37.3,18.0,30.12,SW,225,1.9,3.5,46,0.00,,,0.00,Rainwise IP-100,2013-04-04 02:09:00,
2013-04-03 22:14:00,37.0,18.0,30.12,SW,225,0.0,4.7,46,0.00,,,0.00,Rainwise IP-100,2013-04-04 02:14:00,
2013-04-03 22:19:00,36.7,18.0,30.11,SW,225,2.3,3.0,46,0.00,,,0.00,Rainwise IP-100,2013-04-04 02:19:00,
2013-04-03 22:25:00,36.6,18.0,30.11,SW,225,3.5,3.5,47,0.00,,,0.00,Rainwise IP-100,2013-04-04 02:25:00,
2013-04-03 22:30:00,36.5,21.0,30.11,SW,225,0.0,3.7,48,0.00,,,0.00,Rainwise IP-100,2013-04-04 02:30:00,
2013-04-03 22:36:00,36.3,18.0,30.12,SW,225,0.0,1.9,48,0.00,,,0.00,Rainwise IP-100,2013-04-04 02:36:00,
2013-04-03 22:42:00,35.9,18.0,30.11,SW,225,0.0,2.1,48,0.00,,,0.00,Rainwise IP-100,2013-04-04 02:42:00,
2013-04-03 22:47:00,35.6,18.0,30.12,SW,225,0.0,0.0,49,0.00,,,0.00,Rainwise IP-100,2013-04-04 02:47:00,
2013-04-03 22:52:00,35.2,18.0,30.12,SW,225,0.0,0.0,50,0.00,,,0.00,Rainwise IP-100,2013-04-04 02:52:00,
2013-04-03 22:57:00,34.8,18.0,30.12,SW,225,0.0,0.0,51,0.00,,,0.00,Rainwise IP-100,2013-04-04 02:57:00,
2013-04-03 23:02:00,34.5,18.0,30.12,SW,225,0.0,0.0,51,0.00,,,0.00,Rainwise IP-100,2013-04-04 03:02:00,
2013-04-03 23:07:00,34.3,18.0,30.13,SW,225,0.0,0.0,52,0.00,,,0.00,Rainwise IP-100,2013-04-04 03:07:00,
2013-04-03 23:12:00,33.9,18.0,30.13,SW,225,0.0,0.0,52,0.00,,,0.00,Rainwise IP-100,2013-04-04 03:12:00,
2013-04-03 23:19:00,33.4,18.0,30.13,SW,225,0.0,0.0,54,0.00,,,0.00,Rainwise IP-100,2013-04-04 03:19:00,
2013-04-03 23:24:00,33.0,18.0,30.13,SW,225,0.0,0.0,55,0.00,,,0.00,Rainwise IP-100,2013-04-04 03:24:00,
2013-04-03 23:31:00,32.7,21.0,30.13,SW,225,0.0,0.0,57,0.00,,,0.00,Rainwise IP-100,2013-04-04 03:31:00,
2013-04-03 23:36:00,32.3,18.0,30.13,SW,225,0.0,0.0,58,0.00,,,0.00,Rainwise IP-100,2013-04-04 03:36:00,
2013-04-03 23:41:00,32.0,21.0,30.13,SW,225,0.0,0.0,60,0.00,,,0.00,Rainwise IP-100,2013-04-04 03:41:00,
2013-04-03 23:47:00,31.7,21.0,30.14,SW,225,0.0,0.0,60,0.00,,,0.00,Rainwise IP-100,2013-04-04 03:47:00,
2013-04-03 23:53:00,31.2,18.0,30.14,SW,225,0.0,0.0,61,0.00,,,0.00,Rainwise IP-100,2013-04-04 03:53:00,
2013-04-03 23:58:00,31.0,21.0,30.14,SW,225,0.0,0.0,62,0.00,,,0.00,Rainwise IP-100,2013-04-04 03:58:00,